West Columbia, WV

3:27 PM EST on February 10, 2016 (GMT -0500)
Point Pleasant

Weather History for K3I2 - January, 2008

Change the Weather History Date:

Wednesday, January 16, 2008

  Actual Average (KHTS) Record (KHTS)
Temperature  
Mean Temperature 26 °F 34 °F  
Max Temperature 35 °F 42 °F 72 °F (1949)
Min Temperature 17 °F 25 °F -9 °F (1994)
Degree Days  
Heating Degree Days 39 32  
Month to date heating degree days 501  
Since 1 July heating degree days 2256  
Cooling Degree Days 0 0  
Month to date cooling degree days 0  
Year to date cooling degree days 0  
Moisture  
Dew Point 17 °F    
Average Humidity 69    
Maximum Humidity 86    
Minimum Humidity 48    
Precipitation  
Precipitation 0.00 in 0.09 in 1.15 in (1935)
Month to date precipitation 1.52  
Year to date precipitation 1.52  
Snow  
Snow 0.00 in - - ()
Month to date snowfall  
Since 1 September snowfall  
Snow Depth -    
Sea Level Pressure  
Sea Level Pressure 30.30 in    
Wind  
Wind Speed 1 mph (East)    
Max Wind Speed 6 mph    
Max Gust Speed -    
Visibility 9 miles    
Events      
T = Trace of Precipitation, MM = Missing Value Source: NWS Daily Summary

Daily Weather History Graph

Daily Weather History Graph

Search for Another Location

Airport or City:

Trip Planner

Search our weather history database for the weather conditions in past years. The results will help you decide how hot, cold, wet, or windy it might be!

Date:

Astronomy

Jan. 16, 2008 Rise Set
Actual Time 7:45 AM EST 5:31 PM EST
Civil Twilight 7:16 AM EST 6:00 PM EST
Nautical Twilight 6:43 AM EST 6:33 PM EST
Astronomical Twilight 6:11 AM EST 7:04 PM EST
Moon 11:58 AM EST (1/16) 1:32 AM EST (1/16)
Length of Visible Light 10h 44m
Length of Day
9h 45m
First Quarter, 60% of the Moon is Illuminated
Jan 16
First Quarter
Jan 22
Full
Jan 30
Last Quarter
Feb 6
New
Feb 13
First Quarter

Hourly Weather History & Observations

Time (EST) Temp. Windchill Dew Point Humidity Pressure Visibility Wind Dir Wind Speed Gust Speed Precip Events Conditions
12:17 AM 23.0 °F - 17.6 °F 80% 30.29 in 10.0 mi Calm Calm - N/A   Scattered Clouds
12:37 AM 23.0 °F - 17.6 °F 80% 30.29 in 10.0 mi Calm Calm - N/A   Mostly Cloudy
12:57 AM 21.2 °F - 17.6 °F 86% 30.29 in 10.0 mi Calm Calm - N/A   Scattered Clouds
1:17 AM 21.2 °F - 15.8 °F 80% 30.29 in 10.0 mi Calm Calm - N/A   Clear
1:37 AM 21.2 °F - 15.8 °F 80% 30.30 in 10.0 mi Calm Calm - N/A   Clear
1:57 AM 19.4 °F - 14.0 °F 80% 30.29 in 7.0 mi Calm Calm - N/A   Clear
2:17 AM 19.4 °F - 14.0 °F 80% 30.30 in 10.0 mi Calm Calm - N/A   Clear
2:37 AM 19.4 °F - 14.0 °F 80% 30.30 in 10.0 mi Calm Calm - N/A   Clear
2:57 AM 19.4 °F - 14.0 °F 80% 30.30 in 7.0 mi Calm Calm - N/A   Clear
3:17 AM 19.4 °F - 14.0 °F 80% 30.30 in 7.0 mi Calm Calm - N/A   Clear
3:37 AM 19.4 °F - 14.0 °F 80% 30.30 in 7.0 mi Calm Calm - N/A   Clear
3:57 AM 17.6 °F - 14.0 °F 86% 30.29 in 7.0 mi Calm Calm - N/A   Clear
4:17 AM 17.6 °F - 14.0 °F 86% 30.29 in 7.0 mi Calm Calm - N/A   Clear
4:37 AM 17.6 °F - 14.0 °F 86% 30.31 in 7.0 mi Calm Calm - N/A   Clear
4:57 AM 17.6 °F - 14.0 °F 86% 30.32 in 7.0 mi Calm Calm - N/A   Clear
5:17 AM 17.6 °F - 14.0 °F 86% 30.32 in 5.0 mi Calm Calm - N/A   Clear
5:37 AM 17.6 °F - 14.0 °F 86% 30.33 in 7.0 mi Calm Calm - N/A   Clear
5:57 AM 17.6 °F - 12.2 °F 79% 30.34 in 7.0 mi Calm Calm - N/A   Clear
6:17 AM 17.6 °F - 12.2 °F 79% 30.33 in 7.0 mi Calm Calm - N/A   Clear
6:37 AM 17.6 °F - 12.2 °F 79% 30.34 in 7.0 mi Calm Calm - N/A   Clear
6:57 AM 17.6 °F - 12.2 °F 79% 30.36 in 7.0 mi Calm Calm - N/A   Clear
7:17 AM 17.6 °F - 14.0 °F 86% 30.35 in 7.0 mi Calm Calm - N/A   Clear
7:37 AM 17.6 °F - 14.0 °F 86% 30.34 in 7.0 mi Calm Calm - N/A   Clear
7:57 AM 17.6 °F 10.7 °F 14.0 °F 86% 30.34 in 7.0 mi ENE 4.6 mph - N/A   Clear
8:17 AM 19.4 °F - 14.0 °F 80% 30.35 in 7.0 mi Calm Calm - N/A   Clear
8:37 AM 19.4 °F 12.8 °F 15.8 °F 86% 30.33 in 7.0 mi ENE 4.6 mph - N/A   Clear
8:57 AM 21.2 °F 16.4 °F 17.6 °F 86% 30.33 in 7.0 mi East 3.5 mph - N/A   Clear
9:17 AM 23.0 °F - 17.6 °F 80% 30.34 in 10.0 mi Calm Calm - N/A   Clear
9:37 AM 26.6 °F 21.2 °F 19.4 °F 74% 30.35 in 10.0 mi East 4.6 mph - N/A   Clear
9:57 AM 28.4 °F 24.6 °F 19.4 °F 69% 30.35 in 10.0 mi East 3.5 mph - N/A   Clear
10:17 AM 28.4 °F - 17.6 °F 64% 30.36 in 10.0 mi Calm Calm - N/A   Clear
10:37 AM 30.2 °F - 19.4 °F 64% 30.37 in 10.0 mi Calm Calm - N/A   Clear
10:57 AM 32.0 °F - 17.6 °F 55% 30.36 in 10.0 mi Calm Calm - N/A   Clear
11:17 AM 32.0 °F 28.7 °F 19.4 °F 60% 30.35 in 10.0 mi NE 3.5 mph - N/A   Clear
11:37 AM 33.8 °F - 17.6 °F 52% 30.33 in 10.0 mi Calm Calm - N/A   Clear
11:57 AM 33.8 °F 28.6 °F 17.6 °F 52% 30.32 in 10.0 mi East 5.8 mph - N/A   Clear
12:17 PM 33.8 °F 30.8 °F 17.6 °F 52% 30.31 in 10.0 mi South 3.5 mph - N/A   Clear
12:37 PM 35.6 °F 31.7 °F 19.4 °F 52% 30.30 in 10.0 mi SW 4.6 mph - N/A   Clear
12:57 PM 35.6 °F - 19.4 °F 52% 30.29 in 10.0 mi Calm Calm - N/A   Clear
1:17 PM 35.6 °F - 19.4 °F 52% 30.29 in 10.0 mi Calm Calm - N/A   Clear
1:37 PM 35.6 °F - 19.4 °F 52% 30.29 in 10.0 mi Calm Calm - N/A   Clear
1:57 PM 35.6 °F - 19.4 °F 52% 30.28 in 10.0 mi Calm Calm - N/A   Clear
2:17 PM 33.8 °F - 19.4 °F 56% 30.27 in 10.0 mi Calm Calm - N/A   Clear
2:37 PM 35.6 °F 32.8 °F 17.6 °F 48% 30.27 in 10.0 mi East 3.5 mph - N/A   Clear
2:57 PM 35.6 °F - 17.6 °F 48% 30.27 in 10.0 mi Calm Calm - N/A   Clear
3:17 PM 35.6 °F - 17.6 °F 48% 30.27 in 10.0 mi Calm Calm - N/A   Clear
3:37 PM 35.6 °F - 17.6 °F 48% 30.27 in 10.0 mi Calm Calm - N/A   Clear
3:57 PM 35.6 °F 30.7 °F 19.4 °F 52% 30.26 in 10.0 mi East 5.8 mph - N/A   Clear
4:17 PM 35.6 °F 32.8 °F 17.6 °F 48% 30.27 in 10.0 mi ESE 3.5 mph - N/A   Clear
4:37 PM 33.8 °F 29.6 °F 17.6 °F 52% 30.27 in 10.0 mi East 4.6 mph - N/A   Clear
4:57 PM 33.8 °F 29.6 °F 17.6 °F 52% 30.26 in 10.0 mi East 4.6 mph - N/A   Clear
5:17 PM 33.8 °F - 19.4 °F 56% 30.26 in 10.0 mi Calm Calm - N/A   Clear
5:37 PM 32.0 °F - 21.2 °F 64% 30.25 in 10.0 mi Calm Calm - N/A   Clear
5:57 PM 32.0 °F - 21.2 °F 64% 30.25 in 10.0 mi Calm Calm - N/A   Clear
6:17 PM 32.0 °F - 21.2 °F 64% 30.25 in 10.0 mi Calm Calm - N/A   Clear
6:37 PM 32.0 °F - 21.2 °F 64% 30.24 in 10.0 mi Calm Calm - N/A   Clear
6:57 PM 32.0 °F - 21.2 °F 64% 30.25 in 10.0 mi Calm Calm - N/A   Clear
7:17 PM 32.0 °F - 21.2 °F 64% 30.24 in 10.0 mi Calm Calm - N/A   Clear
7:37 PM 32.0 °F - 23.0 °F 69% 30.25 in 10.0 mi Calm Calm - N/A   Clear
7:57 PM 32.0 °F - 23.0 °F 69% 30.25 in 10.0 mi Calm Calm - N/A   Clear
8:17 PM 32.0 °F - 23.0 °F 69% 30.25 in 10.0 mi Calm Calm - N/A   Clear
8:37 PM 32.0 °F - 23.0 °F 69% 30.24 in 10.0 mi Calm Calm - N/A   Clear
8:57 PM 32.0 °F - 23.0 °F 69% 30.24 in 10.0 mi Calm Calm - N/A   Clear
9:17 PM 32.0 °F - 23.0 °F 69% 30.24 in 10.0 mi Calm Calm - N/A   Clear
9:37 PM 32.0 °F - 23.0 °F 69% 30.24 in 10.0 mi Calm Calm - N/A   Scattered Clouds
9:57 PM 32.0 °F - 23.0 °F 69% 30.24 in 10.0 mi Calm Calm - N/A   Overcast
10:17 PM 32.0 °F - 23.0 °F 69% 30.23 in 10.0 mi Calm Calm - N/A   Overcast
10:37 PM 32.0 °F - 23.0 °F 69% 30.23 in 10.0 mi Calm Calm - N/A   Overcast
10:57 PM 32.0 °F - 24.8 °F 75% 30.22 in 10.0 mi Calm Calm - N/A   Overcast
11:17 PM 32.0 °F - 24.8 °F 75% 30.22 in 10.0 mi Calm Calm - N/A   Overcast
11:37 PM 32.0 °F - 23.0 °F 69% 30.21 in 10.0 mi Calm Calm - N/A   Overcast
11:57 PM 32.0 °F - 23.0 °F 69% 30.20 in 10.0 mi Calm Calm - N/A   Overcast